TimeCDT,TemperatureF,Dew PointF,Humidity,Sea Level PressureIn,VisibilityMPH,Wind Direction,Wind SpeedMPH,Gust SpeedMPH,PrecipitationIn,Events,Conditions,WindDirDegrees,DateUTC
12:55 AM,57.9,57.0,97,29.96,7.0,ESE,8.1,-,0.01,Rain,Light Rain,110,2012-03-21 05:55:00
1:55 AM,57.9,57.0,97,29.95,5.0,East,9.2,-,0.10,Rain,Light Rain,100,2012-03-21 06:55:00
2:55 AM,57.9,57.9,100,29.95,5.0,ESE,8.1,-,0.03,Rain,Light Rain,120,2012-03-21 07:55:00
3:55 AM,57.9,57.9,100,29.94,3.0,ESE,8.1,-,0.08,Rain,Heavy Rain,110,2012-03-21 08:55:00
4:55 AM,57.9,57.9,100,29.94,7.0,ESE,8.1,-,0.17,Rain,Light Rain,120,2012-03-21 09:55:00
5:55 AM,57.9,57.9,100,29.98,6.0,SE,4.6,-,0.07,Rain,Light Rain,140,2012-03-21 10:55:00
6:55 AM,57.9,57.9,100,30.01,5.0,ESE,6.9,-,0.17,Rain,Rain,120,2012-03-21 11:55:00
7:55 AM,59.0,57.9,96,29.99,7.0,East,10.4,-,0.08,Rain,Light Rain,100,2012-03-21 12:55:00
8:55 AM,59.0,59.0,100,30.00,8.0,ESE,9.2,-,0.02,Rain,Light Rain,110,2012-03-21 13:55:00
9:55 AM,61.0,60.1,97,29.99,10.0,ESE,11.5,-,0.03,Rain,Light Rain,120,2012-03-21 14:55:00
10:55 AM,63.0,61.0,93,29.99,10.0,ESE,11.5,-,0.00,Rain,Light Rain,120,2012-03-21 15:55:00
11:55 AM,64.0,61.0,90,29.98,10.0,SE,12.7,-,0.00,Rain,Light Rain,130,2012-03-21 16:55:00
12:55 PM,64.9,60.1,84,29.97,10.0,SE,6.9,-,0.00,,Mostly Cloudy,140,2012-03-21 17:55:00
1:55 PM,68.0,60.1,76,29.96,10.0,ESE,10.4,-,0.00,,Mostly Cloudy,110,2012-03-21 18:55:00
2:55 PM,69.1,57.9,68,29.95,10.0,ESE,13.8,19.6,N/A,,Mostly Cloudy,120,2012-03-21 19:55:00
3:55 PM,70.0,57.9,65,29.94,10.0,SE,5.8,-,N/A,,Mostly Cloudy,130,2012-03-21 20:55:00
4:55 PM,69.1,57.9,68,29.93,10.0,East,3.5,-,N/A,,Overcast,90,2012-03-21 21:55:00
5:55 PM,66.9,60.1,79,29.93,10.0,ENE,4.6,-,N/A,,Mostly Cloudy,60,2012-03-21 22:55:00
6:55 PM,66.0,57.0,73,29.90,10.0,ENE,5.8,-,N/A,,Mostly Cloudy,70,2012-03-21 23:55:00
7:55 PM,66.9,54.0,63,29.91,10.0,East,8.1,-,N/A,,Overcast,90,2012-03-22 00:55:00
8:55 PM,66.9,53.1,61,29.92,10.0,ESE,9.2,-,N/A,,Overcast,110,2012-03-22 01:55:00
9:55 PM,66.0,53.1,63,29.92,10.0,ESE,8.1,-,N/A,,Overcast,110,2012-03-22 02:55:00
10:55 PM,66.9,54.0,63,29.92,10.0,ESE,6.9,-,N/A,,Overcast,110,2012-03-22 03:55:00
11:55 PM,66.0,55.0,68,29.91,10.0,East,9.2,-,0.00,,Overcast,90,2012-03-22 04:55:00